Tracking 22779 objects as of 10-Apr-2021
HD Live streaming from Space Station
objects crossing your sky now

TITAN 3C TRANSTAGE R/B

Track TITAN 3C TRANSTAGE R/B now!


NORAD ID: 3692
Int'l Code: 1969-013B
Perigee: 35,840.1 km
Apogee: 37,317.7 km
Inclination: 3.7 °
Period: 1,476.4 minutes
Semi major axis: 42949 km
RCS: 2.2907 m2 (large)
Launch date: February 9, 1969
Source: United States (US)
Launch site: AIR FORCE EASTERN TEST RANGE (AFETR)

Note: This is a ROCKET BODY
aabbcc
Your satellite tracking list
Your tracking list is empty




NASA's NSSDC Master Catalog

Two Line Element Set (TLE):
1 03692U 69013B   21099.95945778 -.00000131  00000-0  00000-0 0  9990
2 03692   3.6644 289.3907 0172010 157.5488 194.4270  0.97534838 23843
Source of the keplerian elements: AFSPC